Find Starlink 35940

NORAD ID: 66617 Int'l Des: 2025-271 Owner: SPXS Country: US Constellation: starlink operational
LEOCIRCULAR

实时位置

正在加载3D地球...

关于 Starlink 35940

正在加载描述...

即将过境

Passes for default location (London). Set your location on the main map for personalized predictions.

高度历史

Loading altitude history...

两行轨道根数

1 66617U 25271A 26104.86635975 .00004749 00000-0 17237-3 0 9992
2 66617 53.1594 332.0338 0001283 90.7312 269.3835 15.30200875 23106
Epoch: Apr 14, 2026 • Age: 5 hours

当前状态

高度 475.2 km
速度 7.63 km/s
星下点 10.69°N, 112.67°E
发射日期 Nov 23, 2025
运行时间 0.3 years
类型 internet

技术详情

分类 Payload
质量 575.00 kg
干质量 530.00 kg
总质量 575.00 kg
长度 0.30 m
直径 4.10 m
跨度 29.00 m
形状 Box + pan
制造商 SPXS
平台类型 Starlink V2MO
阶段状态 In Orbit
所有者/国家 SPXS/US

Most Searched